VIS870 ENBR-ESSV

Flight info

Callsign VIS870
Flight time 1h 17m
Altitude 39000
Route ENBR3C VATEX DCT ROGMI DCT ROGMI DCT SV855 DCT SV870 DCT VEPAX
Aircraft B748/H-SDE3FGHIM1M2RWXY/LB1

Departure

Time 2026-05-06 19:00
Airport Bergen Airport, Flesland (ENBR)

Arrival

Time 2026-05-06 20:18
Airport Visby Airport (ESSV)
Time Latitude Longitude Altitude Speed Heading
2026-05-06 18:13 60.28569 5.22646 165 ft 0 kts 80°
2026-05-06 18:49 60.28567 5.22629 165 ft 3 kts 82°
2026-05-06 18:49 60.28565 5.22589 165 ft 2 kts 75°
2026-05-06 18:49 60.28562 5.22560 165 ft 1 kts 58°
2026-05-06 18:50 60.28557 5.22542 165 ft 2 kts 39°
2026-05-06 18:50 60.28548 5.22527 165 ft 1 kts 20°
2026-05-06 18:50 60.28540 5.22521 165 ft 1 kts 352°
2026-05-06 18:50 60.28526 5.22528 165 ft 3 kts 335°
2026-05-06 18:51 60.28519 5.22535 165 ft 1 kts 346°
2026-05-06 18:51 60.28528 5.22530 165 ft 2 kts 346°
2026-05-06 18:53 60.28571 5.22517 165 ft 16 kts 352°
2026-05-06 18:54 60.28675 5.22469 166 ft 10 kts 328°
2026-05-06 18:54 60.28699 5.22393 166 ft 8 kts 300°
2026-05-06 18:54 60.28715 5.22366 167 ft 1 kts 331°
2026-05-06 18:54 60.28804 5.22321 167 ft 30 kts 347°
2026-05-06 18:55 60.29060 5.22239 170 ft 43 kts 352°
2026-05-06 18:55 60.29390 5.22119 173 ft 53 kts 351°
2026-05-06 18:55 60.29780 5.21990 176 ft 60 kts 349°
2026-05-06 18:55 60.30174 5.21859 179 ft 55 kts 350°
2026-05-06 18:56 60.30527 5.21738 182 ft 38 kts 352°
2026-05-06 18:56 60.30657 5.21657 183 ft 5 kts 301°
2026-05-06 18:56 60.30662 5.21613 184 ft 4 kts 277°
2026-05-06 18:56 60.30662 5.21595 184 ft 0 kts 267°
2026-05-06 18:58 60.30658 5.21508 186 ft 11 kts 262°
2026-05-06 18:58 60.30657 5.21499 188 ft 0 kts 260°
2026-05-06 18:59 60.30649 5.21449 198 ft 9 kts 246°
2026-05-06 18:59 60.30608 5.21384 199 ft 6 kts 193°
2026-05-06 18:59 60.30560 5.21405 184 ft 14 kts 167°
2026-05-06 18:59 60.30510 5.21424 182 ft 0 kts 169°
2026-05-06 19:00 60.30501 5.21428 181 ft 16 kts 169°
2026-05-06 19:00 60.29992 5.21597 180 ft 130 kts 171°
2026-05-06 19:00 60.28837 5.22020 383 ft 191 kts 170°
2026-05-06 19:00 60.27461 5.22514 1077 ft 206 kts 171°
2026-05-06 19:01 60.26009 5.23008 1902 ft 218 kts 172°
2026-05-06 19:01 60.24417 5.23518 2562 ft 241 kts 172°
2026-05-06 19:01 60.22816 5.24092 4184 ft 228 kts 171°
2026-05-06 19:01 60.21268 5.24676 5565 ft 228 kts 171°
2026-05-06 19:02 60.19640 5.25304 6305 ft 259 kts 171°
2026-05-06 19:02 60.17661 5.26048 6230 ft 319 kts 171°
2026-05-06 19:02 60.15286 5.26916 6234 ft 373 kts 171°
2026-05-06 19:02 60.12799 5.27815 6633 ft 346 kts 171°
2026-05-06 19:03 60.10587 5.28632 7258 ft 309 kts 171°
2026-05-06 19:03 60.08576 5.29395 8000 ft 287 kts 171°
2026-05-06 19:03 60.06620 5.30155 8771 ft 285 kts 171°
2026-05-06 19:03 60.04672 5.30924 9585 ft 288 kts 171°
2026-05-06 19:04 60.02697 5.31719 10348 ft 291 kts 172°
2026-05-06 19:04 60.00739 5.32881 11123 ft 300 kts 154°
2026-05-06 19:04 59.99137 5.35622 11939 ft 311 kts 127°
2026-05-06 19:04 59.98228 5.39576 12788 ft 320 kts 103°
2026-05-06 19:05 59.97897 5.43958 13643 ft 326 kts 95°
2026-05-06 19:05 59.97706 5.48567 14423 ft 332 kts 95°
2026-05-06 19:05 59.97430 5.53114 15166 ft 337 kts 99°
2026-05-06 19:05 59.97017 5.57740 15944 ft 341 kts 101°
2026-05-06 19:06 59.96604 5.62425 16686 ft 346 kts 100°
2026-05-06 19:06 59.96228 5.67284 17007 ft 363 kts 99°
2026-05-06 19:06 59.95853 5.72240 16990 ft 359 kts 99°
2026-05-06 19:06 59.95455 5.77180 16991 ft 360 kts 100°
2026-05-06 19:07 59.95048 5.82103 16997 ft 361 kts 100°
2026-05-06 19:07 59.94654 5.86957 17796 ft 351 kts 100°
2026-05-06 19:07 59.94266 5.91754 18634 ft 350 kts 101°
2026-05-06 19:07 59.93880 5.96466 19391 ft 347 kts 101°
2026-05-06 19:08 59.93491 6.01189 20187 ft 343 kts 101°
2026-05-06 19:08 59.93105 6.05858 20975 ft 339 kts 102°
2026-05-06 19:08 59.92724 6.10445 21777 ft 332 kts 102°
2026-05-06 19:08 59.92349 6.14945 22583 ft 325 kts 102°
2026-05-06 19:09 59.91986 6.19289 23394 ft 313 kts 103°
2026-05-06 19:09 59.91633 6.23497 24101 ft 300 kts 103°
2026-05-06 19:09 59.91297 6.27492 24746 ft 284 kts 104°
2026-05-06 19:09 59.90974 6.31278 25118 ft 281 kts 105°
2026-05-06 19:10 59.90635 6.35191 25089 ft 295 kts 105°
2026-05-06 19:10 59.90285 6.39274 25288 ft 298 kts 104°
2026-05-06 19:10 59.89939 6.43372 25588 ft 301 kts 105°
2026-05-06 19:10 59.89591 6.47432 25866 ft 301 kts 105°
2026-05-06 19:11 59.89230 6.51581 26155 ft 302 kts 105°
2026-05-06 19:11 59.88871 6.55719 26454 ft 304 kts 105°
2026-05-06 19:11 59.88510 6.59870 26720 ft 305 kts 106°
2026-05-06 19:11 59.88148 6.64022 26987 ft 304 kts 106°
2026-05-06 19:12 59.87781 6.68186 27289 ft 308 kts 106°
2026-05-06 19:12 59.87405 6.72436 27582 ft 315 kts 107°
2026-05-06 19:12 59.87022 6.76773 27907 ft 321 kts 107°
2026-05-06 19:12 59.86635 6.81136 28236 ft 328 kts 107°
2026-05-06 19:13 59.86233 6.85649 28572 ft 335 kts 107°
2026-05-06 19:13 59.85819 6.90265 28933 ft 344 kts 107°
2026-05-06 19:13 59.85392 6.95012 29296 ft 353 kts 107°
2026-05-06 19:13 59.84952 6.99889 29671 ft 363 kts 107°
2026-05-06 19:14 59.84498 7.04901 30040 ft 373 kts 107°
2026-05-06 19:14 59.84029 7.10047 30362 ft 383 kts 107°
2026-05-06 19:14 59.83548 7.15316 30670 ft 392 kts 107°
2026-05-06 19:14 59.83051 7.20726 30977 ft 404 kts 106°
2026-05-06 19:15 59.82528 7.26359 31021 ft 425 kts 106°
2026-05-06 19:15 59.81976 7.32283 31016 ft 447 kts 105°
2026-05-06 19:15 59.81399 7.38491 31014 ft 468 kts 105°
2026-05-06 19:15 59.80800 7.44900 31016 ft 489 kts 105°
2026-05-06 19:16 59.80161 7.51675 31011 ft 509 kts 105°
2026-05-06 19:16 59.79493 7.58714 31004 ft 529 kts 105°
2026-05-06 19:16 59.78795 7.66027 30998 ft 549 kts 105°
2026-05-06 19:16 59.78070 7.73587 31046 ft 567 kts 105°
2026-05-06 19:17 59.77314 7.81406 31039 ft 583 kts 105°
2026-05-06 19:17 59.76554 7.89263 31018 ft 572 kts 105°
2026-05-06 19:17 59.75818 7.96864 31017 ft 550 kts 105°
2026-05-06 19:17 59.75096 8.04172 30993 ft 530 kts 106°
2026-05-06 19:18 59.74391 8.11216 30997 ft 512 kts 106°
2026-05-06 19:18 59.73721 8.17924 30992 ft 495 kts 106°
2026-05-06 19:18 59.73064 8.24506 30987 ft 479 kts 107°
2026-05-06 19:18 59.72421 8.30887 30981 ft 465 kts 107°
2026-05-06 19:19 59.71781 8.37148 30988 ft 466 kts 107°
2026-05-06 19:19 59.70491 8.49763 30994 ft 466 kts 107°
2026-05-06 19:20 59.69195 8.62345 30987 ft 466 kts 107°
2026-05-06 19:20 59.67894 8.74815 30978 ft 466 kts 107°
2026-05-06 19:21 59.66562 8.87347 30976 ft 464 kts 109°
2026-05-06 19:21 59.64912 8.99652 30971 ft 462 kts 112°
2026-05-06 19:22 59.63361 9.11868 30968 ft 464 kts 108°
2026-05-06 19:22 59.61889 9.24291 30962 ft 462 kts 110°
2026-05-06 19:23 59.60337 9.36520 30947 ft 463 kts 109°
2026-05-06 19:23 59.58822 9.48852 30945 ft 461 kts 110°
2026-05-06 19:24 59.57260 9.61139 30941 ft 461 kts 110°
2026-05-06 19:24 59.55710 9.73417 30936 ft 461 kts 110°
2026-05-06 19:25 59.54146 9.85590 30943 ft 463 kts 110°
2026-05-06 19:25 59.52567 9.97854 30926 ft 462 kts 110°
2026-05-06 19:26 59.50971 10.10102 30932 ft 462 kts 110°
2026-05-06 19:26 59.49367 10.22340 30927 ft 462 kts 110°
2026-05-06 19:27 59.47752 10.34550 30952 ft 460 kts 110°
2026-05-06 19:27 59.46129 10.46726 30954 ft 460 kts 111°
2026-05-06 19:28 59.44508 10.58791 30956 ft 460 kts 111°
2026-05-06 19:28 59.42864 10.70931 30963 ft 460 kts 111°
2026-05-06 19:29 59.41207 10.83077 30960 ft 459 kts 111°
2026-05-06 19:29 59.39544 10.95169 30957 ft 459 kts 111°
2026-05-06 19:30 59.37871 11.07240 30957 ft 458 kts 111°
2026-05-06 19:30 59.36202 11.19193 30951 ft 457 kts 111°
2026-05-06 19:31 59.34511 11.31208 30985 ft 457 kts 111°
2026-05-06 19:31 59.31959 11.49182 30939 ft 456 kts 112°
2026-05-06 19:32 59.30257 11.61053 30941 ft 456 kts 112°
2026-05-06 19:32 59.28534 11.72981 30938 ft 455 kts 112°
2026-05-06 19:33 59.26804 11.84875 30945 ft 455 kts 112°
2026-05-06 19:33 59.25059 11.96785 30935 ft 455 kts 112°
2026-05-06 19:34 59.23321 12.08568 30953 ft 454 kts 112°
2026-05-06 19:34 59.21560 12.20408 30943 ft 454 kts 113°
2026-05-06 19:35 59.19790 12.32234 30937 ft 454 kts 113°
2026-05-06 19:35 59.18010 12.44044 30944 ft 453 kts 113°
2026-05-06 19:36 59.16231 12.55756 30942 ft 453 kts 113°
2026-05-06 19:36 59.14433 12.67517 30940 ft 453 kts 114°
2026-05-06 19:37 59.12623 12.79276 30937 ft 453 kts 114°
2026-05-06 19:37 59.11112 12.89031 30937 ft 453 kts 114°
2026-05-06 19:38 59.08975 13.02728 30943 ft 452 kts 114°
2026-05-06 19:38 59.08045 13.08636 30948 ft 463 kts 114°
2026-05-06 19:38 59.07097 13.14625 30959 ft 477 kts 114°
2026-05-06 19:39 59.06111 13.20867 30958 ft 491 kts 114°
2026-05-06 19:39 59.05094 13.27307 30959 ft 505 kts 113°
2026-05-06 19:39 59.04045 13.33902 30959 ft 517 kts 113°
2026-05-06 19:39 59.02965 13.40653 30959 ft 529 kts 113°
2026-05-06 19:40 59.00776 13.54317 30951 ft 532 kts 113°
2026-05-06 19:40 58.98568 13.67932 30951 ft 532 kts 114°
2026-05-06 19:41 58.96338 13.81601 30942 ft 532 kts 114°
2026-05-06 19:41 58.94093 13.95244 30936 ft 531 kts 114°
2026-05-06 19:42 58.91837 14.08852 30931 ft 531 kts 114°
2026-05-06 19:42 58.89588 14.22321 30936 ft 531 kts 114°
2026-05-06 19:43 58.87299 14.35921 30937 ft 531 kts 114°
2026-05-06 19:43 58.85000 14.49477 30938 ft 531 kts 114°
2026-05-06 19:44 58.82683 14.63038 30942 ft 531 kts 114°
2026-05-06 19:44 58.80356 14.76562 30944 ft 531 kts 114°
2026-05-06 19:45 58.78026 14.89997 30961 ft 532 kts 115°
2026-05-06 19:45 58.75667 15.03506 30963 ft 531 kts 115°
2026-05-06 19:46 58.73298 15.16964 30954 ft 530 kts 115°
2026-05-06 19:46 58.70923 15.30365 30968 ft 530 kts 115°
2026-05-06 19:47 58.68551 15.43653 30970 ft 529 kts 115°
2026-05-06 19:47 58.66153 15.56994 30976 ft 528 kts 115°
2026-05-06 19:48 58.63744 15.70298 30976 ft 527 kts 115°
2026-05-06 19:48 58.61324 15.83570 30985 ft 526 kts 115°
2026-05-06 19:49 58.58896 15.96791 30588 ft 531 kts 116°
2026-05-06 19:49 58.57673 16.03395 29479 ft 533 kts 115°
2026-05-06 19:49 58.56434 16.10086 28307 ft 533 kts 115°
2026-05-06 19:50 58.55223 16.16648 27238 ft 505 kts 115°
2026-05-06 19:50 58.54107 16.22709 26157 ft 462 kts 115°
2026-05-06 19:50 58.53071 16.28242 25046 ft 419 kts 115°
2026-05-06 19:50 58.52125 16.33238 23961 ft 384 kts 115°
2026-05-06 19:51 58.51242 16.37896 22730 ft 362 kts 115°
2026-05-06 19:51 58.50407 16.42314 21464 ft 346 kts 114°
2026-05-06 19:51 58.49605 16.46557 20261 ft 333 kts 114°
2026-05-06 19:51 58.48841 16.50594 19105 ft 322 kts 114°
2026-05-06 19:52 58.48087 16.54561 17922 ft 313 kts 113°
2026-05-06 19:52 58.47353 16.58417 16671 ft 305 kts 112°
2026-05-06 19:52 58.46637 16.62174 15462 ft 297 kts 111°
2026-05-06 19:52 58.45937 16.65837 14307 ft 290 kts 111°
2026-05-06 19:53 58.45483 16.68210 13527 ft 285 kts 110°
2026-05-06 19:53 58.44810 16.71733 12279 ft 279 kts 110°
2026-05-06 19:53 58.44150 16.75174 11080 ft 273 kts 110°
2026-05-06 19:53 58.43506 16.78529 10190 ft 262 kts 110°
2026-05-06 19:54 58.42912 16.81615 9993 ft 230 kts 110°
2026-05-06 19:54 58.42243 16.85083 9978 ft 192 kts 110°
2026-05-06 19:54 58.41785 16.87460 9979 ft 191 kts 110°
2026-05-06 19:54 58.41332 16.89803 9963 ft 190 kts 110°
2026-05-06 19:55 58.40875 16.92163 9938 ft 190 kts 110°
2026-05-06 19:55 58.40571 16.93735 9920 ft 190 kts 110°
2026-05-06 19:55 58.40112 16.96101 9935 ft 190 kts 110°
2026-05-06 19:55 58.39654 16.98459 9992 ft 190 kts 110°
2026-05-06 19:56 58.39193 17.00824 9995 ft 191 kts 110°
2026-05-06 19:56 58.38582 17.03966 10000 ft 191 kts 110°
2026-05-06 19:56 58.38123 17.06327 9998 ft 191 kts 110°
2026-05-06 19:56 58.37812 17.07921 10005 ft 190 kts 110°
2026-05-06 19:57 58.37356 17.10252 10006 ft 190 kts 110°
2026-05-06 19:57 58.36895 17.12608 9998 ft 190 kts 110°
2026-05-06 19:57 58.36435 17.14961 10002 ft 189 kts 110°
2026-05-06 19:57 58.35974 17.17313 10000 ft 190 kts 110°
2026-05-06 19:58 58.35513 17.19658 10005 ft 190 kts 110°
2026-05-06 19:58 58.35050 17.22011 10003 ft 190 kts 110°
2026-05-06 19:58 58.34589 17.24357 10003 ft 189 kts 110°
2026-05-06 19:58 58.33977 17.27466 10005 ft 189 kts 110°
2026-05-06 19:59 58.33665 17.29049 10003 ft 189 kts 110°
2026-05-06 19:59 58.33203 17.31391 10004 ft 189 kts 110°
2026-05-06 19:59 58.32747 17.33698 10003 ft 189 kts 110°
2026-05-06 19:59 58.32283 17.36037 10005 ft 189 kts 110°
2026-05-06 20:00 58.31797 17.38492 10078 ft 217 kts 110°
2026-05-06 20:00 58.31222 17.41391 10303 ft 246 kts 110°
2026-05-06 20:00 58.30598 17.44534 10540 ft 258 kts 111°
2026-05-06 20:00 58.29961 17.47734 10488 ft 259 kts 111°
2026-05-06 20:01 58.29322 17.50937 10419 ft 259 kts 111°
2026-05-06 20:01 58.28684 17.54134 10335 ft 258 kts 111°
2026-05-06 20:01 58.28045 17.57328 10245 ft 257 kts 111°
2026-05-06 20:01 58.27411 17.60495 10132 ft 257 kts 111°
2026-05-06 20:02 58.26786 17.63608 10014 ft 253 kts 111°
2026-05-06 20:02 58.26161 17.66722 10020 ft 256 kts 111°
2026-05-06 20:02 58.25529 17.69862 10016 ft 255 kts 111°
2026-05-06 20:02 58.24895 17.73008 10022 ft 255 kts 111°
2026-05-06 20:03 58.24261 17.76147 10021 ft 255 kts 111°
2026-05-06 20:03 58.23627 17.79283 10017 ft 255 kts 111°
2026-05-06 20:03 58.23034 17.82211 10020 ft 254 kts 111°
2026-05-06 20:03 58.22399 17.85346 10016 ft 254 kts 111°
2026-05-06 20:04 58.21763 17.88473 10014 ft 254 kts 111°
2026-05-06 20:04 58.21129 17.91591 10015 ft 254 kts 111°
2026-05-06 20:04 58.20501 17.94674 10015 ft 254 kts 111°
2026-05-06 20:04 58.19865 17.97788 10015 ft 253 kts 111°
2026-05-06 20:05 58.18969 18.00630 10023 ft 254 kts 137°
2026-05-06 20:05 58.17560 18.02636 9993 ft 252 kts 146°
2026-05-06 20:05 58.16092 18.04392 9784 ft 245 kts 147°
2026-05-06 20:05 58.14700 18.06092 9531 ft 229 kts 146°
2026-05-06 20:06 58.13430 18.07715 9289 ft 212 kts 145°
2026-05-06 20:06 58.12263 18.09211 9078 ft 193 kts 145°
2026-05-06 20:06 58.11197 18.10562 8873 ft 176 kts 145°
2026-05-06 20:06 58.10224 18.11794 8600 ft 168 kts 145°
2026-05-06 20:07 58.09258 18.13014 8284 ft 166 kts 145°
2026-05-06 20:07 58.08291 18.14240 7911 ft 169 kts 144°
2026-05-06 20:07 58.07311 18.15475 7573 ft 169 kts 144°
2026-05-06 20:07 58.06336 18.16709 7268 ft 168 kts 144°
2026-05-06 20:08 58.05365 18.17933 6967 ft 168 kts 144°
2026-05-06 20:08 58.04397 18.19152 6649 ft 167 kts 144°
2026-05-06 20:08 58.03434 18.20369 6359 ft 166 kts 144°
2026-05-06 20:08 58.02476 18.21571 6052 ft 165 kts 144°
2026-05-06 20:09 58.01525 18.22771 5747 ft 164 kts 144°
2026-05-06 20:09 58.00580 18.23957 5449 ft 163 kts 143°
2026-05-06 20:09 57.99723 18.25035 5173 ft 162 kts 144°
2026-05-06 20:09 57.98799 18.26197 5011 ft 155 kts 143°
2026-05-06 20:10 57.97876 18.27356 5012 ft 159 kts 144°
2026-05-06 20:10 57.96950 18.28520 5017 ft 160 kts 144°
2026-05-06 20:10 57.96020 18.29684 5021 ft 161 kts 143°
2026-05-06 20:10 57.95087 18.30852 5011 ft 160 kts 143°
2026-05-06 20:11 57.94155 18.32018 5018 ft 161 kts 143°
2026-05-06 20:11 57.93239 18.33164 4792 ft 158 kts 143°
2026-05-06 20:11 57.92323 18.34312 4444 ft 158 kts 143°
2026-05-06 20:11 57.91419 18.35442 4154 ft 157 kts 143°
2026-05-06 20:12 57.90517 18.36569 3747 ft 155 kts 143°
2026-05-06 20:12 57.89625 18.37684 3364 ft 154 kts 143°
2026-05-06 20:12 57.88737 18.38792 2981 ft 152 kts 143°
2026-05-06 20:12 57.87857 18.39888 2596 ft 151 kts 143°
2026-05-06 20:13 57.86988 18.40970 2206 ft 150 kts 143°
2026-05-06 20:13 57.86119 18.42053 1828 ft 148 kts 143°
2026-05-06 20:13 57.85270 18.43113 1823 ft 151 kts 142°
2026-05-06 20:13 57.84407 18.44184 1818 ft 150 kts 142°
2026-05-06 20:14 57.83552 18.45248 1819 ft 150 kts 143°
2026-05-06 20:14 57.82603 18.46061 1762 ft 157 kts 173°
2026-05-06 20:14 57.81537 18.45621 1861 ft 162 kts 197°
2026-05-06 20:14 57.80496 18.44877 1821 ft 161 kts 199°
2026-05-06 20:15 57.79448 18.44103 1817 ft 163 kts 198°
2026-05-06 20:15 57.78395 18.43344 1819 ft 163 kts 197°
2026-05-06 20:15 57.77343 18.42588 1805 ft 163 kts 197°
2026-05-06 20:15 57.76295 18.41833 1820 ft 162 kts 198°
2026-05-06 20:16 57.75247 18.41079 1826 ft 162 kts 197°
2026-05-06 20:16 57.74193 18.40318 1731 ft 163 kts 198°
2026-05-06 20:16 57.73158 18.39564 1520 ft 162 kts 198°
2026-05-06 20:16 57.72116 18.38814 1315 ft 160 kts 198°
2026-05-06 20:17 57.71076 18.38070 1062 ft 160 kts 198°
2026-05-06 20:17 57.70048 18.37336 825 ft 157 kts 198°
2026-05-06 20:17 57.69028 18.36584 587 ft 157 kts 198°
2026-05-06 20:17 57.68011 18.35867 382 ft 154 kts 198°
2026-05-06 20:18 57.67009 18.35150 178 ft 154 kts 198°
2026-05-06 20:18 57.66121 18.34511 157 ft 113 kts 201°
2026-05-06 20:18 57.65596 18.34133 160 ft 49 kts 201°
2026-05-06 20:18 57.65447 18.34025 155 ft 0 kts 204°
2026-05-06 20:19 57.65453 18.34030 155 ft 3 kts 206°
2026-05-06 20:19 57.65482 18.34064 157 ft 0 kts 216°
2026-05-06 20:19 57.65439 18.33995 155 ft 13 kts 227°
2026-05-06 20:19 57.65413 18.33922 155 ft 0 kts 249°
2026-05-06 20:20 57.65412 18.33865 156 ft 12 kts 272°
2026-05-06 20:20 57.65432 18.33778 156 ft 6 kts 307°
2026-05-06 20:20 57.65475 18.33738 156 ft 5 kts 355°
2026-05-06 20:21 57.65531 18.33761 155 ft 14 kts 16°
2026-05-06 20:21 57.65652 18.33853 157 ft 23 kts 21°
2026-05-06 20:21 57.65833 18.33981 156 ft 30 kts 21°
2026-05-06 20:21 57.65973 18.34079 152 ft 13 kts 15°
2026-05-06 20:22 57.65997 18.34082 151 ft 2 kts 352°
2026-05-06 20:22 57.66010 18.34068 151 ft 3 kts 324°
2026-05-06 20:22 57.66022 18.34027 151 ft 7 kts 295°
2026-05-06 20:22 57.66041 18.33968 152 ft 0 kts 311°
2026-05-06 20:23 57.66049 18.33958 153 ft 2 kts 325°
2026-05-06 20:23 57.66051 18.33957 153 ft 0 kts 333°